Regional Weather Roundup
Issued by NWS

Home | Current Version | Previous Version | Text Only | Print | Product List | Glossary Off
Versions: 1 2 3 4 5 6 7 8 9 10 11 12 13 14 15 16 17 18 19 20 21 22 23 24 25 26 27 28 29 30 31 32 33 34 35 36 37 38 39 40 41 42 43 44 45 46 47 48 49 50

000
ASUS43 KFSD 121810
RWRSD

WEATHER ROUNDUP FOR SOUTH DAKOTA
NATIONAL WEATHER SERVICE SIOUX FALLS SD
1200 PM CST FRI FEB 12 2016

NOTE: "FAIR" INDICATES FEW OR NO CLOUDS BELOW 12,000 FEET WITH NO
SIGNIFICANT WEATHER AND/OR OBSTRUCTIONS TO VISIBILITY.


SDZ001>005-009-010-012>017-121900-
NORTHWEST AND NORTH CENTRAL SOUTH DAKOTA

CITY           SKY/WX    TMP DP  RH WIND       PRES   REMARKS
BUFFALO          N/A     23  18  81 E13       30.34F WCI  11
FAITH            N/A     20  13  74 E12       30.47S WCI   8
MOBRIDGE       SUNNY     14   5  67 N10       30.54R WCI   1
$$

SDZ012>016-024>037-041>051-057-063-072>074-121900-
SOUTHWEST AND SOUTH CENTRAL SOUTH DAKOTA

CITY           SKY/WX    TMP DP  RH WIND       PRES   REMARKS
RAPID CTY ARPT FOG       27  26  96 SE10      30.41S VSB 3/4 WCI  17
PIERRE         CLOUDY    22  14  71 NE9       30.54R WCI  12
CUSTER         CLOUDY    28  23  81 VRB6      30.29S WCI  22
ELLSWORTH AFB  CLOUDY    28  28 100 E6        30.40S FOG     WCI  21
PHILIP         CLOUDY    25  16  68 E8        30.50R WCI  16
PINE RIDGE     CLOUDY    32  27  81 NE5       30.41R WCI  27
SPEARFISH        N/A     30  27  86 NE7       30.36S WCI  23
WINNER         CLOUDY    23  13  65 NE9       30.51S WCI  13
$$

SDZ004>011-016>023-039-040-121900-
NORTHEAST SOUTH DAKOTA

CITY           SKY/WX    TMP DP  RH WIND       PRES   REMARKS
ABERDEEN       SUNNY      7  -3  64 N17       30.63R WCI -12
WATERTOWN      SUNNY      4  -6  63 N18       30.53R WCI -16
BROOKINGS      SUNNY      7  -3  64 N17       30.52R WCI -12
SISSETON         N/A      2  -7  66 N21       30.61R WCI -20
$$

SDZ017-020-022-023-036>040-048>070-121900-
SOUTHEAST SOUTH DAKOTA

CITY           SKY/WX    TMP DP  RH WIND       PRES   REMARKS
SIOUX FALLS    MOSUNNY   11   0  61 N15       30.53R WCI  -5
HURON          SUNNY     13   3  64 N16       30.60R WCI  -3
CHAMBERLAIN    CLOUDY    18  11  75 E7        30.55R WCI   8
MITCHELL       PTSUNNY   15   6  67 N13       30.60R WCI   1
YANKTON        CLOUDY    18   7  62 N18       30.57R WCI   2
$$

ABBREVIATIONS USED IN REMARKS
   TC - TEMPERATURE IN CELSIUS
  WCI - WIND CHILL INDEX
   HX - HEAT INDEX
  VSB - VISIBILITY




USA.gov is the U.S. government's official web portal to all federal, state and local government web resources and services.